Retour au catalogue

PRAETORIAN SDA_603

ActifMilitairePO
NORAD 65566·PAYLOAD·🇺🇸 United States

Lancé Sep 10, 2025 depuis Vandenberg Space Force Base

Loading…

Prochains Passages (prochaines 24 heures)

TLE

FraisSource: Space-Track

Époque: Sep 14, 2026, 11:32 UTC

1 65566U 25203B   26257.48097799  .00000175  00000-0  14689-3 0  9999
2 65566  81.3009 288.0348 0008705 314.5410  45.5035 13.83966163 51051

Suivez PRAETORIAN SDA_603 en temps réel avec AllMySat

Download on the App Store